Terminal Aerodrome Forecast
Issued by NWS

Home | Current Version | Previous Version | Text Only | Print | Product List | Glossary On
Versions: 1 2 3 4 5 6 7 8 9 10 11 12 13 14 15 16
635
FTUS44 KLZK 250122 AAA
TAFLIT
TAF AMD
KLIT 250122Z 2501/2524 19009KT P6SM VCTS SCT030CB BKN050 BKN250
      TEMPO 2501/2503 VRB15G30KT 3SM TSRA BKN040CB OVC080
     FM250300 16007KT P6SM FEW030 SCT100 BKN250
     FM251000 18007KT 6SM BR OVC015
     FM251500 18009KT P6SM BKN035 BKN250
     FM251800 18008G15KT P6SM VCTS BKN030CB OVC250=

USA.gov is the U.S. government's official web portal to all federal, state and local government web resources and services.